Tracking 18942 objects as of 18-Jan-2018
HD Live streaming from Space Station
objects crossing your sky now

METEOR 1-23

Track METEOR 1-23 now!
10-day predictions
METEOR 1-23 is classified as:


NORAD ID: 8519
Int'l Code: 1975-124A
Perigee: 853.6 km
Apogee: 874.1 km
Inclination: 81.2 °
Period: 102.1 minutes
Semi major axis: 7234 km
RCS: 4.3645 m2 (large)
Launch date: December 25, 1975
Source: Commonwealth of Independent States (former USSR) (CIS)
Launch site: PLESETSK MISSILE AND SPACE COMPLEX (PKMTR)
aabbcc
Your satellite tracking list
Your tracking list is empty




NASA's NSSDC Master Catalog

Two Line Element Set (TLE):
1 08519U 75124A   18018.14162374  .00000214  00000-0  11253-3 0  9990
2 08519  81.2423 239.2624 0014196  35.4911 324.7202 14.10776108163956
Source of the keplerian elements: AFSPC